Temp
-14 -14 -14 -14 -13 -13 -11 -11 -11 -10 -10 -10 -9 -8 -8 -8 -8 -8 -8 -8 -8 -7 -7 -7 -7 -7 -6 -6 -6 -6 -6 -6 -5 -5 -5 -5 -5 -6 -6 -5 -5 -5 -5 -5 -5 -5 -5 -5 -5
-15 -14 -14 -14 -13 -12 -11 -12 -11 -10 -10 -10 -10 -9 -8 -9 -9 -8 -8 -8 -8 -8 -8 -8 -7 -7 -7 -6 -6 -6 -6 -6 -6 -5 -5 -6 -6 -6 -6 -6 -6 -5 -5 -5 -5 -5 -5 -5 -5
-15 -15 -15 -14 -13 -12 -11 -12 -12 -12 -11 -10 -10 -8 -9 -9 -9 -9 -8 -8 -8 -8 -8 -8 -8 -7 -7 -6 -6 -6 -6 -6 -6 -6 -6 -6 -6 -6 -6 -6 -6 -6 -5 -5 -5 -5 -5 -5 -5
-15 -15 -15 -14 -12 -12 -12 -12 -14 -14 -12 -11 -10 -9 -9 -9 -9 -9 -9 -8 -8 -8 -8 -8 -8 -8 -7 -7 -6 -6 -6 -6 -6 -6 -6 -6 -6 -6 -6 -6 -6 -6 -6 -6 -6 -6 -6 -6 -5
-16 -15 -15 -14 -12 -12 -13 -13 -13 -13 -11 -11 -10 -9 -9 -8 -9 -9 -9 -9 -9 -9 -9 -9 -8 -8 -8 -7 -7 -7 -6 -6 -6 -6 -6 -6 -7 -6 -6 -6 -6 -6 -6 -6 -6 -6 -6 -6 -6
-16 -17 -15 -14 -12 -13 -14 -14 -13 -13 -12 -11 -11 -9 -9 -9 -9 -9 -9 -9 -9 -9 -9 -9 -9 -8 -8 -8 -7 -7 -7 -7 -7 -7 -7 -7 -7 -7 -7 -7 -6 -6 -6 -6 -6 -6 -6 -6 -6
-17 -17 -15 -14 -13 -14 -15 -15 -13 -13 -13 -12 -11 -11 -10 -10 -10 -9 -9 -9 -10 -9 -9 -9 -9 -9 -8 -8 -8 -7 -7 -7 -7 -7 -7 -7 -7 -7 -7 -7 -7 -7 -7 -7 -6 -6 -6 -7 -6
-17 -17 -16 -15 -14 -14 -15 -13 -13 -13 -13 -13 -13 -11 -12 -10 -9 -10 -9 -9 -9 -9 -9 -9 -9 -9 -9 -8 -8 -8 -7 -7 -7 -7 -7 -7 -7 -7 -7 -7 -7 -7 -7 -7 -7 -7 -7 -7 -7
-17 -17 -16 -15 -15 -14 -15 -13 -14 -13 -13 -12 -12 -13 -12 -12 -10 -10 -10 -9 -9 -9 -9 -9 -9 -9 -9 -9 -8 -8 -8 -7 -7 -8 -8 -8 -8 -8 -8 -8 -8 -8 -7 -7 -7 -7 -7 -7 -7
-18 -17 -16 -15 -15 -15 -15 -14 -14 -13 -13 -13 -13 -13 -13 -13 -13 -12 -10 -9 -10 -10 -10 -9 -10 -10 -10 -9 -9 -9 -8 -8 -8 -8 -8 -8 -8 -8 -8 -8 -8 -8 -8 -8 -8 -8 -8 -8 -8
-19 -16 -15 -16 -16 -16 -14 -15 -14 -14 -14 -13 -13 -14 -14 -13 -13 -12 -11 -10 -9 -10 -10 -10 -10 -10 -10 -10 -9 -9 -9 -9 -9 -8 -8 -8 -8 -8 -8 -8 -8 -8 -8 -8 -8 -8 -8 -8 -8
-18 -16 -16 -17 -16 -16 -15 -15 -15 -14 -14 -13 -13 -13 -14 -14 -13 -12 -12 -11 -10 -10 -10 -10 -11 -11 -10 -10 -10 -10 -9 -9 -9 -9 -9 -9 -9 -9 -9 -9 -8 -8 -8 -8 -8 -8 -8 -8 -8
-17 -16 -16 -16 -16 -16 -16 -15 -15 -14 -13 -13 -14 -14 -14 -14 -13 -13 -14 -13 -11 -10 -10 -11 -11 -10 -10 -11 -11 -11 -10 -10 -10 -10 -10 -9 -9 -9 -9 -9 -9 -9 -9 -9 -9 -8 -9 -9 -9
-17 -17 -17 -16 -16 -15 -15 -15 -15 -14 -13 -13 -13 -13 -13 -14 -13 -14 -13 -13 -12 -12 -12 -11 -11 -11 -11 -11 -11 -11 -11 -10 -10 -10 -10 -10 -10 -9 -9 -9 -9 -9 -9 -9 -9 -9 -9 -9 -9
-18 -18 -17 -16 -16 -16 -16 -15 -15 -14 -13 -13 -13 -13 -14 -14 -14 -14 -14 -14 -13 -13 -12 -12 -12 -12 -12 -11 -12 -12 -11 -10 -10 -10 -10 -10 -10 -10 -10 -10 -10 -10 -9 -9 -9 -9 -9 -9 -9
-18 -18 -17 -16 -16 -15 -15 -15 -15 -15 -14 -14 -14 -13 -14 -14 -14 -14 -14 -14 -14 -13 -12 -12 -12 -12 -12 -12 -12 -12 -11 -11 -11 -10 -10 -10 -10 -10 -10 -10 -10 -10 -10 -10 -10 -10 -10 -10 -9
-19 -18 -17 -16 -16 -15 -15 -15 -15 -15 -15 -14 -13 -13 -13 -14 -14 -13 -14 -13 -13 -13 -13 -12 -12 -13 -13 -12 -12 -12 -11 -11 -11 -10 -10 -10 -10 -10 -10 -10 -10 -10 -10 -10 -10 -10 -10 -10 -10
-19 -18 -17 -17 -16 -16 -15 -14 -16 -15 -15 -14 -14 -14 -14 -14 -14 -14 -14 -14 -13 -13 -13 -13 -12 -12 -12 -12 -12 -12 -12 -11 -11 -11 -11 -11 -10 -10 -10 -10 -10 -11 -11 -11 -11 -10 -10 -10 -10
-19 -18 -17 -17 -16 -16 -16 -15 -15 -15 -15 -15 -14 -14 -14 -14 -14 -14 -14 -14 -13 -13 -13 -13 -13 -13 -12 -12 -12 -12 -11 -11 -11 -11 -11 -11 -11 -10 -11 -10 -10 -11 -11 -11 -11 -10 -10 -11 -10
-18 -18 -18 -17 -17 -16 -16 -16 -15 -15 -16 -16 -15 -14 -14 -14 -14 -14 -13 -13 -13 -13 -13 -13 -13 -13 -13 -13 -13 -12 -12 -12 -11 -11 -11 -11 -12 -11 -12 -12 -12 -11 -11 -11 -11 -11 -11 -11 -11
-19 -18 -18 -17 -17 -16 -16 -16 -16 -16 -16 -16 -15 -15 -14 -14 -15 -14 -13 -14 -14 -13 -13 -13 -13 -14 -14 -14 -12 -13 -12 -12 -12 -12 -12 -12 -12 -12 -12 -12 -12 -11 -11 -10 -11 -11 -11 -11 -11
-18 -18 -18 -18 -17 -17 -17 -16 -16 -16 -17 -16 -16 -16 -15 -14 -14 -14 -14 -14 -14 -14 -13 -13 -13 -14 -15 -14 -13 -13 -13 -13 -12 -12 -12 -12 -12 -12 -12 -12 -12 -12 -12 -11 -11 -11 -11 -11 -11
-18 -18 -17 -17 -17 -17 -17 -17 -17 -16 -16 -16 -15 -15 -15 -15 -14 -14 -14 -15 -15 -15 -14 -13 -14 -14 -14 -13 -13 -13 -13 -14 -13 -13 -13 -13 -12 -12 -12 -12 -12 -12 -13 -13 -13 -12 -12 -12 -11
-18 -18 -18 -18 -18 -18 -17 -18 -17 -17 -17 -16 -16 -15 -16 -15 -14 -13 -13 -13 -13 -14 -14 -14 -14 -13 -14 -14 -13 -14 -14 -13 -13 -13 -14 -13 -13 -13 -12 -13 -13 -13 -13 -13 -13 -12 -12 -12 -12
-19 -18 -18 -19 -18 -18 -18 -17 -17 -17 -16 -16 -16 -15 -15 -15 -14 -14 -14 -14 -14 -13 -14 -14 -14 -14 -13 -14 -14 -13 -14 -14 -14 -14 -14 -14 -14 -13 -13 -13 -13 -13 -13 -13 -13 -13 -12 -13 -13
-19 -19 -18 -18 -18 -17 -17 -18 -17 -17 -16 -16 -16 -16 -15 -15 -14 -14 -14 -14 -14 -14 -15 -15 -14 -14 -14 -14 -14 -14 -14 -14 -14 -14 -14 -14 -14 -14 -14 -14 -13 -13 -13 -13 -13 -13 -13 -13 -13
-19 -19 -18 -18 -19 -19 -18 -18 -18 -17 -17 -16 -16 -16 -15 -15 -15 -14 -14 -14 -14 -14 -15 -15 -15 -15 -15 -15 -14 -14 -15 -14 -14 -14 -14 -14 -14 -14 -14 -14 -14 -13 -14 -14 -14 -14 -14 -14 -14
-19 -18 -19 -19 -20 -19 -19 -19 -18 -18 -17 -16 -17 -17 -16 -16 -15 -15 -15 -15 -14 -15 -16 -16 -16 -15 -15 -15 -15 -15 -15 -15 -14 -14 -14 -14 -14 -14 -14 -14 -14 -14 -14 -14 -14 -14 -14 -14 -14
-19 -19 -19 -19 -19 -19 -19 -19 -18 -18 -17 -17 -18 -17 -16 -16 -16 -15 -15 -15 -15 -15 -16 -16 -16 -16 -16 -16 -16 -15 -15 -15 -15 -15 -15 -15 -15 -14 -14 -14 -14 -15 -14 -14 -15 -15 -15 -15 -14
-19 -19 -19 -19 -19 -19 -19 -18 -18 -18 -18 -18 -17 -17 -16 -16 -16 -15 -15 -15 -16 -16 -15 -16 -16 -17 -17 -17 -17 -16 -16 -16 -16 -16 -16 -16 -16 -16 -15 -15 -15 -15 -15 -15 -15 -15 -15 -15 -15
Height
5777 5781 5788 5792 5798 5802 5813 5821 5820 5827 5835 5840 5844 5851 5857 5861 5861 5871 5877 5879 5882 5885 5888 5890 5893 5895 5896 5898 5900 5901 5902 5903 5903 5904 5904 5904 5904 5905 5905 5905 5905 5904 5904 5903 5902 5901 5900 5899 5898
5767 5774 5780 5783 5790 5797 5809 5819 5816 5826 5831 5836 5840 5848 5853 5856 5858 5867 5871 5875 5879 5882 5885 5887 5890 5893 5895 5896 5898 5899 5900 5902 5902 5902 5903 5903 5903 5904 5904 5904 5904 5903 5902 5902 5901 5900 5899 5898 5897
5757 5765 5771 5775 5782 5793 5809 5819 5817 5817 5822 5829 5841 5847 5850 5853 5857 5861 5864 5870 5875 5879 5882 5885 5888 5890 5893 5894 5895 5897 5898 5899 5901 5901 5901 5901 5902 5902 5903 5903 5902 5902 5901 5900 5900 5899 5898 5897 5896
5748 5757 5761 5765 5780 5794 5805 5814 5807 5810 5813 5823 5832 5838 5845 5851 5851 5857 5861 5864 5869 5875 5879 5882 5886 5887 5890 5892 5893 5895 5896 5897 5898 5899 5900 5900 5900 5900 5901 5901 5901 5900 5900 5899 5898 5897 5897 5896 5895
5741 5746 5750 5760 5777 5788 5799 5802 5796 5805 5811 5819 5824 5829 5837 5845 5843 5850 5856 5861 5867 5872 5876 5879 5883 5885 5888 5890 5891 5891 5893 5894 5896 5897 5898 5898 5898 5899 5899 5900 5900 5899 5898 5898 5897 5896 5895 5895 5894
5729 5734 5740 5755 5773 5782 5791 5789 5798 5802 5805 5812 5819 5821 5828 5834 5838 5844 5850 5855 5860 5867 5872 5875 5879 5882 5884 5887 5889 5889 5890 5892 5893 5894 5895 5896 5897 5897 5897 5898 5898 5897 5897 5896 5895 5894 5894 5893 5892
5719 5725 5738 5754 5763 5772 5777 5782 5795 5797 5802 5807 5814 5819 5823 5832 5838 5843 5846 5850 5854 5861 5866 5870 5874 5878 5881 5883 5886 5888 5888 5889 5890 5892 5893 5894 5895 5895 5896 5896 5896 5895 5894 5894 5893 5892 5892 5890 5890
5714 5720 5731 5742 5751 5766 5769 5784 5789 5793 5797 5803 5808 5815 5820 5825 5832 5836 5840 5845 5851 5856 5861 5865 5870 5874 5878 5880 5882 5885 5886 5887 5888 5889 5890 5891 5892 5893 5894 5894 5893 5893 5892 5892 5890 5890 5889 5889 5888
5704 5707 5719 5735 5746 5758 5766 5777 5782 5785 5790 5801 5807 5813 5817 5816 5823 5831 5838 5842 5845 5850 5857 5861 5865 5869 5873 5875 5878 5881 5883 5884 5885 5886 5887 5888 5889 5890 5891 5892 5891 5891 5890 5889 5888 5888 5887 5886 5886
5689 5697 5717 5734 5742 5750 5760 5771 5774 5778 5785 5794 5803 5807 5809 5815 5820 5827 5831 5835 5839 5845 5851 5856 5861 5865 5868 5871 5873 5876 5879 5881 5882 5884 5885 5885 5886 5887 5888 5889 5888 5888 5888 5887 5886 5885 5884 5883 5883
5682 5698 5719 5726 5731 5742 5751 5762 5766 5772 5781 5791 5800 5802 5805 5813 5817 5822 5829 5830 5837 5838 5843 5850 5856 5861 5864 5866 5868 5871 5875 5877 5879 5880 5881 5882 5882 5883 5884 5885 5885 5885 5885 5885 5884 5883 5882 5880 5880
5677 5697 5709 5721 5728 5737 5747 5753 5761 5768 5777 5786 5794 5798 5802 5808 5814 5817 5821 5825 5833 5833 5838 5843 5850 5856 5859 5862 5863 5867 5870 5873 5875 5876 5877 5879 5878 5879 5881 5882 5882 5882 5882 5881 5881 5880 5879 5878 5877
5673 5688 5703 5710 5720 5733 5739 5747 5754 5764 5773 5782 5788 5793 5798 5801 5808 5813 5816 5820 5825 5829 5836 5841 5846 5850 5854 5858 5860 5862 5865 5867 5871 5872 5873 5875 5875 5876 5877 5878 5879 5879 5879 5878 5877 5877 5875 5874 5873
5672 5685 5699 5705 5715 5726 5734 5740 5748 5759 5766 5774 5782 5788 5792 5797 5802 5806 5812 5817 5819 5824 5828 5835 5840 5844 5848 5853 5855 5858 5860 5863 5864 5867 5868 5870 5871 5872 5873 5874 5874 5874 5874 5875 5874 5873 5873 5872 5870
5665 5678 5688 5700 5711 5716 5726 5734 5745 5750 5758 5766 5774 5782 5787 5791 5796 5803 5807 5809 5814 5820 5825 5830 5834 5837 5843 5847 5851 5852 5855 5858 5859 5860 5862 5864 5866 5867 5869 5870 5870 5870 5870 5870 5869 5869 5868 5867 5866
5658 5670 5680 5692 5705 5713 5719 5731 5735 5742 5752 5761 5768 5774 5782 5785 5790 5795 5802 5806 5811 5817 5821 5825 5829 5835 5838 5842 5845 5847 5849 5852 5853 5854 5856 5857 5860 5862 5864 5865 5865 5865 5865 5865 5865 5864 5863 5862 5861
5650 5662 5674 5686 5696 5704 5715 5724 5727 5736 5745 5754 5760 5767 5774 5782 5786 5791 5795 5802 5807 5810 5817 5821 5825 5829 5832 5835 5838 5841 5843 5845 5847 5848 5850 5850 5853 5855 5856 5857 5859 5860 5860 5860 5859 5859 5858 5857 5856
5649 5660 5671 5682 5693 5701 5710 5714 5722 5730 5740 5747 5753 5761 5768 5774 5781 5786 5790 5794 5800 5806 5809 5813 5819 5822 5826 5829 5833 5835 5837 5838 5839 5842 5843 5844 5846 5848 5849 5850 5851 5852 5853 5853 5853 5852 5852 5851 5850
5652 5666 5674 5682 5690 5700 5704 5712 5720 5726 5732 5741 5749 5754 5762 5768 5771 5775 5781 5787 5793 5798 5803 5808 5810 5813 5818 5822 5825 5828 5829 5831 5833 5835 5837 5839 5839 5840 5842 5842 5844 5845 5845 5846 5845 5845 5845 5844 5842
5650 5659 5670 5678 5686 5695 5700 5706 5713 5721 5726 5734 5741 5748 5756 5759 5762 5766 5774 5780 5785 5791 5796 5797 5803 5805 5810 5814 5817 5820 5822 5824 5826 5828 5829 5831 5831 5833 5833 5833 5834 5836 5836 5837 5837 5837 5836 5836 5834
5650 5660 5668 5679 5687 5692 5698 5702 5710 5716 5719 5726 5735 5742 5748 5753 5756 5763 5771 5775 5779 5784 5788 5792 5795 5797 5801 5806 5809 5811 5814 5817 5818 5819 5821 5823 5824 5824 5824 5825 5825 5824 5826 5827 5827 5827 5827 5826 5826
5652 5660 5666 5678 5684 5690 5697 5701 5705 5710 5715 5723 5731 5737 5742 5747 5752 5758 5763 5767 5772 5776 5781 5784 5787 5788 5792 5796 5799 5801 5805 5806 5808 5810 5812 5813 5814 5815 5816 5816 5817 5817 5817 5818 5818 5817 5816 5815 5815
5654 5661 5669 5676 5679 5685 5691 5697 5700 5705 5712 5719 5725 5732 5737 5740 5747 5752 5756 5760 5763 5766 5770 5775 5778 5782 5785 5788 5790 5792 5793 5796 5799 5801 5802 5803 5805 5806 5807 5808 5808 5808 5808 5808 5807 5807 5806 5805 5804
5655 5660 5667 5671 5676 5683 5688 5692 5697 5704 5710 5716 5722 5728 5731 5735 5738 5744 5747 5752 5756 5760 5762 5766 5770 5774 5777 5777 5780 5781 5784 5785 5788 5790 5791 5793 5795 5796 5797 5797 5796 5796 5796 5796 5795 5795 5794 5793 5792
5655 5660 5666 5670 5673 5680 5686 5691 5696 5702 5708 5714 5718 5723 5725 5728 5732 5735 5742 5744 5747 5751 5754 5756 5760 5763 5767 5769 5771 5772 5773 5776 5777 5778 5780 5782 5784 5785 5786 5785 5785 5785 5785 5784 5784 5783 5782 5781 5780
5656 5662 5665 5669 5673 5681 5686 5690 5696 5700 5706 5710 5714 5717 5721 5725 5726 5729 5733 5738 5741 5743 5746 5747 5749 5751 5754 5756 5759 5761 5762 5765 5766 5768 5769 5770 5772 5774 5774 5773 5773 5773 5773 5772 5772 5771 5770 5770 5769
5652 5658 5664 5667 5671 5676 5680 5687 5694 5698 5701 5705 5709 5711 5715 5719 5722 5724 5727 5731 5733 5734 5736 5738 5739 5741 5743 5743 5745 5749 5751 5753 5755 5756 5757 5760 5761 5761 5760 5760 5760 5761 5760 5760 5760 5759 5759 5758 5757
5652 5656 5661 5665 5669 5673 5679 5684 5689 5693 5697 5702 5703 5706 5709 5712 5716 5719 5720 5722 5724 5725 5726 5727 5730 5731 5732 5733 5735 5738 5741 5742 5743 5744 5745 5745 5745 5746 5747 5748 5748 5748 5747 5747 5747 5747 5746 5746 5746
5653 5656 5660 5664 5666 5669 5674 5678 5682 5686 5690 5693 5694 5699 5703 5707 5710 5712 5713 5714 5716 5717 5718 5719 5720 5722 5722 5723 5724 5727 5727 5727 5728 5729 5731 5732 5732 5732 5733 5733 5734 5734 5734 5733 5734 5734 5733 5734 5734
5653 5655 5659 5661 5665 5669 5672 5676 5677 5680 5683 5685 5688 5693 5697 5700 5702 5704 5706 5706 5707 5709 5711 5711 5712 5713 5713 5714 5714 5714 5716 5715 5716 5717 5718 5719 5720 5720 5720 5720 5720 5719 5719 5719 5720 5720 5720 5721 5720
Wind_Speed
61 61 57 55 56 52 53 44 53 44 46 54 52 46 40 39 40 36 30 30 27 24 21 18 15 15 14 12 11 10 8 7 6 5 5 5 5 5 4 4 4 4 4 4 4 4 4 4 4
58 61 60 57 56 56 49 41 45 45 41 50 54 48 45 38 32 31 34 31 28 25 21 20 18 15 15 14 13 12 9 8 7 7 7 7 6 4 4 4 4 4 4 4 4 3 3 3 4
58 60 61 60 57 54 51 36 42 44 45 43 49 43 47 41 33 32 36 33 29 25 23 20 20 18 16 15 14 12 12 11 10 9 9 8 7 6 5 4 3 4 4 3 3 3 4 4 4
58 60 62 66 62 50 45 38 43 41 49 42 54 47 45 30 37 40 36 35 31 28 24 20 19 18 18 16 15 13 12 12 12 11 10 10 9 7 5 4 4 3 3 3 3 3 3 4 5
57 61 62 64 61 54 44 45 52 45 44 47 55 48 41 32 36 40 33 34 31 29 26 23 20 18 17 17 16 14 11 12 14 14 13 12 10 8 6 5 5 4 4 4 3 3 4 5 6
59 61 64 59 58 54 46 51 48 49 48 50 51 49 39 36 33 37 42 38 35 31 30 25 23 20 18 16 16 15 13 13 14 15 15 14 11 9 7 7 6 5 5 4 4 4 5 6 7
60 65 59 54 56 56 50 54 52 52 52 49 52 49 43 47 48 48 47 42 38 35 32 28 24 22 20 17 17 16 15 14 15 16 16 14 12 10 9 8 7 7 6 5 5 5 6 6 7
64 65 60 59 58 56 54 48 50 54 53 50 46 52 45 45 49 37 41 41 39 37 34 30 26 23 21 18 19 18 17 16 17 18 17 15 13 12 11 10 8 7 6 6 5 5 6 7 7
64 68 66 58 58 57 55 53 51 53 53 50 41 41 43 38 39 34 36 38 36 36 35 32 27 23 21 21 19 20 20 19 19 19 18 17 15 13 12 11 9 9 7 7 7 7 6 7 8
69 63 61 57 50 56 57 55 57 55 51 44 43 41 45 40 39 38 32 36 40 37 37 33 29 25 22 24 23 21 22 21 21 20 20 18 16 15 13 12 11 10 9 9 9 8 8 8 10
71 61 60 57 53 53 59 57 60 59 53 47 41 43 44 47 41 44 37 20 39 35 39 33 30 25 23 24 25 23 24 24 23 22 21 20 17 16 15 14 13 13 12 12 12 11 10 10 11
63 59 61 49 54 44 57 60 59 56 54 48 45 47 49 45 48 44 49 41 32 35 34 33 32 26 23 23 25 24 24 23 24 23 23 22 19 18 17 16 15 14 14 15 14 13 13 13 13
56 58 60 48 50 55 55 56 55 56 51 46 50 48 48 47 49 49 44 39 31 28 39 33 26 25 24 21 21 22 24 23 23 24 24 25 23 20 19 18 17 17 17 17 16 15 16 16 16
56 56 60 61 45 46 57 55 54 53 53 47 44 49 47 49 48 48 45 39 32 31 32 25 24 25 24 23 22 23 25 25 24 24 26 26 26 24 21 19 19 19 19 19 18 17 18 18 19
59 59 63 59 52 54 52 53 54 51 51 50 43 46 48 47 51 48 47 43 36 34 31 30 32 27 28 26 25 26 26 28 27 26 28 27 28 27 23 22 22 21 22 21 20 20 20 20 21
62 60 63 52 51 52 54 56 47 53 57 54 50 42 49 51 52 45 48 44 42 39 36 35 35 32 32 30 30 30 30 29 30 29 29 30 30 29 27 26 25 24 24 24 23 22 23 22 23
63 58 63 58 57 53 40 39 45 60 50 50 49 45 43 51 54 50 43 46 44 43 40 41 40 38 37 36 35 34 33 31 32 33 32 32 32 30 30 29 28 27 25 26 26 26 26 25 25
54 56 56 59 47 56 55 38 39 43 54 53 51 44 40 46 49 52 51 42 47 43 44 43 43 42 42 40 37 38 36 35 35 34 34 33 34 32 33 32 31 30 29 29 30 29 28 29 29
46 50 52 41 50 59 37 32 37 39 47 44 45 45 40 36 49 46 47 46 52 43 46 43 44 42 43 41 40 39 39 37 38 36 33 36 34 35 33 33 35 35 34 33 33 33 33 32 34
37 53 48 47 44 52 51 47 27 36 47 48 46 43 46 38 48 50 43 44 39 40 42 48 43 42 43 42 40 41 40 39 39 38 38 38 30 36 38 39 37 38 37 36 37 37 38 38 39
33 53 47 34 46 42 37 51 40 38 38 48 49 46 44 47 40 43 47 50 50 43 41 40 50 43 42 41 43 42 43 40 40 41 42 39 36 37 35 33 37 49 47 41 45 43 42 43 44
36 38 50 39 21 25 36 27 27 29 29 39 39 35 37 41 39 31 32 39 52 50 50 39 37 49 41 40 41 40 39 43 43 42 39 38 41 40 38 38 38 38 39 45 47 48 47 48 50
35 36 48 39 23 28 33 17 22 38 29 26 27 30 29 28 41 40 37 35 31 35 43 45 39 37 38 37 43 49 40 41 41 41 42 43 43 44 42 43 43 42 43 46 51 51 52 52 51
29 29 39 45 37 22 19 13 23 23 27 28 23 21 26 31 28 33 34 40 43 41 42 39 39 42 40 43 45 44 41 45 47 47 48 44 45 46 45 46 48 49 48 49 48 49 50 52 52
26 26 33 33 37 42 29 18 21 23 29 26 20 21 19 19 24 27 30 31 38 43 44 44 49 50 50 52 52 54 51 49 49 53 48 47 50 49 49 52 52 53 50 53 52 53 53 51 49
24 32 33 31 27 35 36 27 20 19 21 24 22 21 24 27 23 22 25 32 40 39 37 38 42 45 53 57 56 56 54 54 53 49 49 51 53 55 57 57 54 53 54 52 52 54 54 51 50
27 27 31 31 32 32 33 37 26 23 20 24 19 20 23 23 22 23 25 24 31 36 38 39 38 40 40 41 48 51 51 53 52 49 48 50 49 53 53 54 52 54 53 53 53 53 52 52 51
22 27 30 29 27 27 33 36 33 31 33 30 25 22 21 21 24 25 23 23 21 24 30 32 36 37 40 38 36 48 56 59 60 61 62 60 59 56 55 54 52 56 52 54 53 52 51 49 47
19 20 24 26 27 26 27 31 30 25 26 29 29 23 25 26 25 26 26 26 24 22 24 28 30 35 41 41 40 44 48 51 52 52 47 49 54 60 58 56 55 55 58 60 53 51 50 48 48
14 13 15 17 22 26 25 27 28 24 23 21 26 30 32 36 36 34 33 28 24 23 23 23 22 26 32 39 40 39 44 45 48 43 41 45 41 42 48 50 58 58 57 55 52 52 51 50 49
Wind_Direction
218 217 216 213 215 223 228 226 221 193 190 195 195 197 203 213 217 205 206 213 218 220 221 222 225 227 226 231 232 230 230 232 236 238 225 216 217 223 240 257 271 291 306 308 318 332 346 359 5
218 218 217 217 216 218 224 227 237 206 184 194 195 191 201 205 219 198 200 210 217 220 221 223 224 225 226 228 233 232 231 231 225 218 218 213 217 235 252 264 278 290 300 305 314 326 335 341 348
216 218 218 218 217 223 223 224 238 237 214 201 190 191 209 207 207 193 202 207 215 218 219 220 223 223 227 227 229 233 231 229 223 217 218 218 222 236 248 265 281 293 293 293 306 321 338 342 347
215 216 220 218 219 219 217 212 217 234 228 206 187 194 191 207 221 205 202 205 210 215 216 216 221 219 225 226 226 228 233 228 225 222 221 221 223 230 243 260 274 288 293 302 311 327 334 330 339
214 216 218 220 217 215 211 207 214 224 231 218 192 185 195 182 198 196 204 210 211 215 219 218 222 221 222 225 228 224 229 229 226 222 224 224 222 225 233 248 259 266 273 282 296 313 322 321 324
214 215 218 217 215 213 210 208 216 228 234 225 212 196 178 189 216 223 211 207 210 213 219 220 225 227 226 229 233 230 229 232 226 224 224 225 224 226 232 240 250 259 264 269 282 302 313 319 322
213 215 214 211 212 209 206 206 211 223 230 236 223 221 210 196 211 221 206 208 207 211 215 219 225 231 232 233 240 238 232 235 233 228 225 226 228 233 236 239 249 253 259 268 284 301 309 316 323
211 215 213 211 208 208 208 208 213 224 230 232 237 221 224 202 206 193 197 199 210 212 215 216 221 233 240 237 240 244 240 236 234 230 226 227 231 233 241 244 249 259 267 273 285 300 308 316 322
210 213 208 211 210 205 208 205 210 219 233 235 237 239 224 227 221 219 198 200 203 213 217 218 219 228 242 247 240 243 241 238 235 230 227 225 231 236 241 249 256 260 261 269 280 289 301 314 318
213 215 202 207 211 209 208 208 214 218 226 233 237 241 245 222 228 229 219 204 207 213 217 220 219 225 234 245 246 241 244 238 234 232 231 229 233 238 248 257 262 269 276 280 284 293 307 317 319
212 215 203 206 207 211 207 208 214 220 221 226 231 236 244 231 226 225 213 189 198 206 209 219 225 227 231 235 243 243 243 243 238 234 235 236 236 244 249 257 266 275 284 289 293 301 307 312 314
206 207 204 204 210 210 211 208 212 218 223 224 224 233 242 240 232 230 230 232 208 199 220 214 224 227 234 235 240 243 246 248 247 240 239 239 238 244 250 256 263 268 274 280 285 293 299 304 308
199 204 204 201 210 202 210 212 214 217 223 224 225 229 237 238 239 232 239 247 238 230 211 213 227 226 230 236 242 245 244 244 248 248 245 244 242 241 246 254 260 267 272 276 281 287 293 298 302
196 198 205 201 200 211 214 213 215 218 223 223 226 227 232 240 236 245 239 243 238 246 250 229 232 226 238 243 248 248 245 242 241 244 248 249 250 246 249 253 260 267 274 276 279 282 287 293 298
192 195 203 205 200 213 204 214 217 218 221 223 224 224 227 235 238 238 239 239 235 238 240 244 245 242 248 246 252 255 254 245 243 242 244 245 250 254 255 258 262 267 271 272 275 279 284 289 291
194 195 204 201 196 201 213 219 211 221 225 225 227 230 227 228 240 237 235 237 241 234 238 242 247 242 249 250 250 255 253 249 249 247 248 248 248 252 257 259 264 268 273 273 276 281 285 288 289
196 194 200 204 201 208 196 204 214 215 215 219 221 227 233 232 238 245 239 234 234 239 235 237 239 244 246 249 254 255 254 255 250 250 250 253 254 257 259 262 267 269 274 274 279 281 285 289 291
195 195 199 206 208 206 202 214 202 213 218 221 223 227 236 236 233 242 245 237 237 238 238 237 241 243 246 251 252 254 256 256 255 253 254 258 260 262 264 264 266 270 272 272 277 281 284 288 291
188 201 203 205 208 197 195 207 215 218 215 221 223 225 233 240 231 235 239 250 243 240 242 241 240 244 246 248 251 252 255 257 257 259 261 260 261 261 263 267 270 271 272 272 275 279 282 285 289
192 192 198 208 209 211 220 213 211 226 225 225 222 225 229 240 233 233 232 237 238 242 240 242 242 244 247 251 252 254 255 256 258 261 261 260 266 263 264 264 266 270 270 273 277 281 284 287 289
195 190 196 199 206 209 214 224 233 220 214 220 226 229 230 232 243 239 235 234 241 245 243 244 242 242 244 247 251 253 255 257 258 258 259 260 261 260 263 268 273 263 263 270 277 283 285 288 290
201 198 199 196 191 197 209 217 220 201 209 223 228 232 238 237 235 243 233 234 233 237 238 241 241 240 240 248 250 251 254 253 254 255 257 258 258 261 263 265 269 273 269 270 275 279 284 287 287
194 200 199 185 174 202 199 207 221 221 224 219 230 231 241 237 245 253 254 239 231 239 237 230 236 238 248 255 257 247 251 252 259 258 253 254 257 261 265 267 271 272 272 273 278 279 280 280 282
187 196 203 208 198 215 191 188 201 199 210 222 231 233 236 248 246 239 245 243 237 241 245 245 245 247 249 251 256 260 260 261 256 258 254 260 262 264 267 273 273 276 276 279 280 281 282 282 282
193 197 201 211 225 221 226 207 207 203 205 205 218 225 231 253 250 250 250 248 243 248 252 252 252 255 257 257 259 261 265 263 262 259 257 256 258 266 270 268 269 272 274 279 279 282 283 284 284
191 196 194 208 224 228 227 230 222 225 227 222 218 228 241 247 251 251 245 246 246 248 247 250 252 254 252 249 251 254 258 255 258 259 263 262 262 261 266 265 268 267 273 272 278 280 280 282 283
199 208 208 218 226 233 232 227 228 232 235 245 237 232 236 240 238 236 241 244 242 243 245 250 256 263 262 259 250 254 256 257 257 257 265 269 265 264 263 264 264 267 267 273 277 277 277 278 279
197 209 205 213 221 224 227 228 232 235 239 238 237 232 231 237 245 251 251 252 252 256 257 256 255 256 257 257 256 252 253 255 259 261 259 262 265 263 263 265 265 267 275 272 273 275 275 276 276
185 200 211 216 215 223 220 224 230 238 240 242 241 239 239 241 246 252 255 258 260 261 261 258 257 253 251 253 256 255 251 248 252 254 260 260 265 265 262 261 264 268 272 268 269 270 270 272 273
202 197 198 203 217 223 225 231 233 239 235 231 235 240 243 242 247 251 254 258 259 261 262 266 263 261 261 259 259 260 262 267 269 269 270 265 267 269 263 264 264 263 264 262 265 267 270 273 276